(386230) = 2007 YQ45

Discovered at Mount Lemmon on 2007-12-30 by Mt. Lemmon Survey.

Orbit

Orbit type: Main Belt

Note: WebGL enabled browser required.

epoch2023-09-13.0
epoch JD2460200.5
perihelion date2021-08-21.01381
perihelion JD2459447.51381
argument of perihelion (°)24.08700
ascending node (°)282.04303
inclination (°)3.02774
eccentricity0.0637043
perihelion distance (AU)2.8900236
Tisserand w.r.t. Jupiter3.2
ΔV w.r.t. Earth (km/sec)10.6
semimajor axis (AU)3.0866570
mean anomaly (°)136.85425
mean daily motion (°/day)0.18174870
aphelion distance (AU)3.283
period (years)5.42
P-vector [x]0.58906259
P-vector [y]-0.74971667
P-vector [z]-0.30154630
Q-vector [x]0.80643464
Q-vector [y]0.52154068
Q-vector [z]0.27867274
absolute magnitude16.42
phase slope0.15
uncertainty0
referenceMPEC 2024-C06
observations used266
oppositions15
arc length (days)6288
first opposition used2006
last opposition used2024
residual rms (arc-secs)0.78
perturbers coarse indicatorM-v
perturbers precise indicator003Ek
first observation date used2006-11-13.0
last observation date used2024-01-31.0
computer nameMPCLINUX
JD of orbit computation2456732.289926
perihelion JD uncertainty (days)5.7108E-04
argument of perihelion uncertainty (°)1.9843E-04
ascending node uncertainty (°)1.7006E-04
inclination uncertainty (°)7.2626E-06
eccentricity uncertainty 1.0533E-07
perihelion distance uncertainty (AU)3.8157E-07
Minimum Orbit Intersection Distances (in AU)
for orbit epoch: 2460200.5, reference: E2024-BH3
Mercury2.4486
Venus2.16391
Earth1.87467
Mars1.46395
Jupiter1.87125
Saturn5.7996
Uranus15.2072
Neptune26.7455

Observations

269 total observations over interval: 2006 11 13.17297 – 2024 01 31.317190
These data are available for download (format description).

Date (UT) J2000 RA J2000 Dec Magn Location Ref
2006 11 13.17297 03 30 22.67 +22 25 27.2   691 – Steward Observatory, Kitt Peak-Spacewatch MPS 239573
2006 11 13.19032 03 30 21.76 +22 25 23.5   691 – Steward Observatory, Kitt Peak-Spacewatch MPS 239573
2006 11 13.20769 03 30 20.85 +22 25 20.2   691 – Steward Observatory, Kitt Peak-Spacewatch MPS 239573
2006 12 12.06663 03 08 16.85 +20 38 35.0 21.7 V 691 – Steward Observatory, Kitt Peak-Spacewatch MPS 239573
2006 12 12.08462 03 08 16.27 +20 38 32.0 21.2 V 691 – Steward Observatory, Kitt Peak-Spacewatch MPS 239573
2006 12 12.10260 03 08 15.63 +20 38 28.6 21.7 V 691 – Steward Observatory, Kitt Peak-Spacewatch MPS 239573
2007 12 30.44654 09 02 18.02 +15 22 55.7 21.4 V G96 – Mt. Lemmon Survey MPS 232694
2007 12 30.45486 09 02 17.77 +15 22 56.3 21.6 V G96 – Mt. Lemmon Survey MPS 232694
2007 12 30.46322 09 02 17.48 +15 22 56.1 22.4 V G96 – Mt. Lemmon Survey MPS 232694
2007 12 30.47154 09 02 17.23 +15 22 57.1 21.4 V G96 – Mt. Lemmon Survey MPS 232694
2007 12 31.35672 09 01 49.84 +15 24 02.1 21.1 V 691 – Steward Observatory, Kitt Peak-Spacewatch MPS 232695
2007 12 31.37437 09 01 49.28 +15 24 04.1 21.2 V 691 – Steward Observatory, Kitt Peak-Spacewatch MPS 232695
2007 12 31.39200 09 01 48.72 +15 24 05.3 21.0 V 691 – Steward Observatory, Kitt Peak-Spacewatch MPS 232695
2008 01 30.24765 08 39 46.69 +16 27 04.9 20.6 V G96 – Mt. Lemmon Survey MPS 235537
2008 01 30.25442 08 39 46.33 +16 27 06.0 20.8 V G96 – Mt. Lemmon Survey MPS 235537
2008 01 30.26102 08 39 46.00 +16 27 07.2 20.7 V G96 – Mt. Lemmon Survey MPS 235537
2008 01 30.26766 08 39 45.64 +16 27 08.0 20.6 V G96 – Mt. Lemmon Survey MPS 235537
2008 01 31.27767 08 38 54.42 +16 29 41.7 21.2 V G96 – Mt. Lemmon Survey MPS 235537
2008 01 31.28307 08 38 54.16 +16 29 42.5 21.3 V G96 – Mt. Lemmon Survey MPS 235537
2008 01 31.28840 08 38 53.88 +16 29 43.4 21.5 V G96 – Mt. Lemmon Survey MPS 235537
2008 01 31.29375 08 38 53.62 +16 29 44.1 21.0 V G96 – Mt. Lemmon Survey MPS 235537
2008 02 03.24731 08 36 24.80 +16 37 10.7 21.0 V G96 – Mt. Lemmon Survey MPS 236362
2008 02 03.25287 08 36 24.55 +16 37 12.0 20.7 V G96 – Mt. Lemmon Survey MPS 236362
2008 02 03.25841 08 36 24.30 +16 37 12.3 21.8 V G96 – Mt. Lemmon Survey MPS 236362
2008 02 03.26400 08 36 23.97 +16 37 13.4 21.2 V G96 – Mt. Lemmon Survey MPS 236362
2009 04 17.27425 13 10 31.00 -12 12 05.1 20.8 V G96 – Mt. Lemmon Survey MPS 284471
2009 04 17.28047 13 10 30.68 -12 12 04.2 21.5 V G96 – Mt. Lemmon Survey MPS 284471
2009 04 17.28669 13 10 30.32 -12 12 00.9 21.3 V G96 – Mt. Lemmon Survey MPS 284471
2009 04 17.29273 13 10 30.10 -12 11 59.6 20.4 V G96 – Mt. Lemmon Survey MPS 284471
2010 04 10.578731 19 26 32.22 -22 40 20.1   C51 – WISE MPS 341947
2010 04 10.711036 19 26 38.97 -22 40 00.5   C51 – WISE MPS 341947
2010 04 10.843340 19 26 45.85 -22 39 43.9   C51 – WISE MPS 341947
2010 04 10.909428 19 26 49.26 -22 39 35.6   C51 – WISE MPS 341947
2010 04 10.975645 19 26 52.64 -22 39 26.2   C51 – WISE MPS 341947
2010 04 11.04173 19 26 56.12 -22 39 17.2   C51 – WISE MPS 341947
2010 04 11.107948 19 26 59.39 -22 39 09.0   C51 – WISE MPS 341947
2010 04 11.174037 19 27 02.77 -22 39 00.0   C51 – WISE MPS 341948
2010 04 11.174164 19 27 02.94 -22 39 00.2   C51 – WISE MPS 341948
2010 04 11.571076 19 27 23.10 -22 38 07.3   C51 – WISE MPS 341948
2010 04 11.703381 19 27 29.90 -22 37 50.3   C51 – WISE MPS 341948
2011 10 21.20212 00 59 08.37 +11 06 31.7 20.2 V G96 – Mt. Lemmon Survey MPS 395088
2011 10 21.21206 00 59 07.94 +11 06 28.9 20.3 V G96 – Mt. Lemmon Survey MPS 395088
2011 10 21.22200 00 59 07.47 +11 06 25.7 20.3 V G96 – Mt. Lemmon Survey MPS 395088
2011 10 21.23188 00 59 07.04 +11 06 22.6 20.4 V G96 – Mt. Lemmon Survey MPS 395088
2011 10 21.31007 00 59 03.689 +11 06 00.20 21.0 w F51 – Pan-STARRS 1, Haleakala MPS 396394
2011 10 21.32390 00 59 03.070 +11 05 56.04 20.9 w F51 – Pan-STARRS 1, Haleakala MPS 396394
2011 10 21.33772 00 59 02.442 +11 05 51.87 21.0 w F51 – Pan-STARRS 1, Haleakala MPS 396394
2013 01 09.24770 06 21 38.18 +23 35 39.4 20.6 V G84 – Mount Lemmon SkyCenter MPS 449642
2013 01 09.27103 06 21 36.96 +23 35 39.1 20.5 V G84 – Mount Lemmon SkyCenter MPS 449642
2013 01 09.28337 06 21 36.34 +23 35 38.2 20.0 V G84 – Mount Lemmon SkyCenter MPS 449642
2014 02 28.40287 11 16 26.050 +00 25 34.62 21.1 w F51 – Pan-STARRS 1, Haleakala MPS 505368
2014 02 28.41524 11 16 25.480 +00 25 37.52 21.1 w F51 – Pan-STARRS 1, Haleakala MPS 505368
2014 02 28.42774 11 16 24.920 +00 25 40.58 20.9 w F51 – Pan-STARRS 1, Haleakala MPS 505368
2014 02 28.44014 11 16 24.347 +00 25 43.59 20.8 w F51 – Pan-STARRS 1, Haleakala MPS 505368
2014 03 05.48080 11 12 37.353 +00 46 46.78 20.8 w F51 – Pan-STARRS 1, Haleakala MPS 505368
2014 03 05.49319 11 12 36.767 +00 46 50.08 20.8 w F51 – Pan-STARRS 1, Haleakala MPS 505368
2014 03 05.50553 11 12 36.187 +00 46 53.24 20.9 w F51 – Pan-STARRS 1, Haleakala MPS 505368
2014 03 05.51792 11 12 35.613 +00 46 56.34 20.9 w F51 – Pan-STARRS 1, Haleakala MPS 505368
2015 05 18.48107 16 30 58.946 -24 37 20.34 20.6 w F51 – Pan-STARRS 1, Haleakala MPS 608530
2015 05 18.49220 16 30 58.395 -24 37 19.08 20.5 w F51 – Pan-STARRS 1, Haleakala MPS 608530
2015 05 18.50337 16 30 57.836 -24 37 17.51 20.4 w F51 – Pan-STARRS 1, Haleakala MPS 608530
2015 05 18.51456 16 30 57.282 -24 37 16.11 20.7 w F51 – Pan-STARRS 1, Haleakala MPS 608530
2015 05 21.43154 16 28 34.986 -24 30 49.17 20.6 w F51 – Pan-STARRS 1, Haleakala MPS 608530
2015 05 21.44364 16 28 34.366 -24 30 47.48 20.4 w F51 – Pan-STARRS 1, Haleakala MPS 608530
2015 05 21.45576 16 28 33.746 -24 30 45.68 20.4 w F51 – Pan-STARRS 1, Haleakala MPS 608530
2015 07 09.34537 15 56 15.995 -22 19 25.71 21.2 w F51 – Pan-STARRS 1, Haleakala MPS 615099
2015 07 09.36891 15 56 15.632 -22 19 22.80 21.1 w F51 – Pan-STARRS 1, Haleakala MPS 615099
2015 07 09.38085 15 56 15.459 -22 19 21.31 21.2 w F51 – Pan-STARRS 1, Haleakala MPS 615099
2015 07 19.29144 15 55 09.805 -22 03 35.29 21.7 w F51 – Pan-STARRS 1, Haleakala MPS 617531
2015 07 19.30241 15 55 09.801 -22 03 35.12 22.1 w F51 – Pan-STARRS 1, Haleakala MPS 617531
2015 07 19.31338 15 55 09.787 -22 03 33.62 21.7 w F51 – Pan-STARRS 1, Haleakala MPS 617531
2016 08 08.56614 23 01 14.225 -02 25 03.75 20.6 w F51 – Pan-STARRS 1, Haleakala MPS 724944
2016 08 08.57669 23 01 13.882 -02 25 05.02 20.6 w F51 – Pan-STARRS 1, Haleakala MPS 724944
2016 08 08.58734 23 01 13.519 -02 25 06.27 20.7 w F51 – Pan-STARRS 1, Haleakala MPS 724944
2016 08 26.33636 22 49 36.34 -03 17 41.5 20.5 V G96 – Mt. Lemmon Survey MPS 725513
2016 08 26.33916 22 49 36.19 -03 17 41.6 20.7 V G96 – Mt. Lemmon Survey MPS 725513
2016 08 26.34203 22 49 36.03 -03 17 42.1 20.1 V G96 – Mt. Lemmon Survey MPS 725513
2016 08 28.24143 22 48 11.03 -03 24 56.6 20.4 V G96 – Mt. Lemmon Survey MPS 727518
2016 08 28.24818 22 48 10.68 -03 24 58.2 20.5 V G96 – Mt. Lemmon Survey MPS 727518
2016 08 28.25499 22 48 10.39 -03 24 59.3 20.7 V G96 – Mt. Lemmon Survey MPS 727518
2016 08 28.26170 22 48 10.12 -03 25 01.5 20.3 V G96 – Mt. Lemmon Survey MPS 727518
2016 08 28.64996 22 47 52.49 -03 26 31.4 19.9 R D29 – Purple Mountain Observatory, XuYi Station MPS 727518
2016 08 28.66499 22 47 51.81 -03 26 35.0 20.1 R D29 – Purple Mountain Observatory, XuYi Station MPS 727518
2016 09 25.17303 22 28 41.61 -05 17 05.9 20.1 V G96 – Mt. Lemmon Survey MPS 732202
2016 09 25.17895 22 28 41.39 -05 17 06.3 20.5 V G96 – Mt. Lemmon Survey MPS 732202
2016 09 25.18610 22 28 41.13 -05 17 08.1 20.6 V G96 – Mt. Lemmon Survey MPS 732202
2016 09 25.20082 22 28 40.63 -05 17 11.0 20.3 V G96 – Mt. Lemmon Survey MPS 732202
2016 11 24.06854 22 33 22.27 -05 37 27.2 21.7 V G96 – Mt. Lemmon Survey MPS 747249
2016 11 24.07892 22 33 22.72 -05 37 25.0 22.3 V G96 – Mt. Lemmon Survey MPS 747249
2016 11 24.08323 22 33 22.98 -05 37 23.3 20.8 V G96 – Mt. Lemmon Survey MPS 747249
2017 10 27.40314 04 37 04.36 +24 53 33.6 21.4 G G96 – Mt. Lemmon Survey MPS 831462
2017 10 27.40964 04 37 04.14 +24 53 33.6 21.7 G G96 – Mt. Lemmon Survey MPS 831462
2017 10 27.41610 04 37 03.99 +24 53 33.0 22.4 G G96 – Mt. Lemmon Survey MPS 831462
2017 10 27.42246 04 37 03.80 +24 53 32.6 22.0 G G96 – Mt. Lemmon Survey MPS 831462
2017 10 30.56777 04 35 22.033 +24 50 16.78 21.1 w F51 – Pan-STARRS 1, Haleakala MPS 834137
